�������l�o���
Date,Time,MP-1(��Sv/h),MP-2(��Sv/h),MP-3(��Sv/h),MP-4(��Sv/h),MP-5(��Sv/h),MP-6(��Sv/h),MP-7(��Sv/h),����,����(m/s),���J
2020/12/10,00:00,0.178,0.159,0.260,0.245,0.240,0.141,0.085,-,CALM,��
2020/12/10,00:10,0.178,0.160,0.259,0.244,0.240,0.141,0.085,���쐼,1.0,��
2020/12/10,00:20,0.177,0.160,0.259,0.246,0.239,0.141,0.086,-,CALM,��
2020/12/10,00:30,0.178,0.160,0.259,0.247,0.240,0.141,0.086,���k��,0.6,��
2020/12/10,00:40,0.177,0.160,0.259,0.246,0.241,0.141,0.086,-,CALM,��
2020/12/10,00:50,0.179,0.160,0.261,0.246,0.241,0.141,0.086,-,CALM,��
2020/12/10,01:00,0.178,0.160,0.260,0.246,0.240,0.140,0.086,-,CALM,��
2020/12/10,01:10,0.178,0.159,0.259,0.246,0.240,0.141,0.087,��쐼,0.7,��
2020/12/10,01:20,0.178,0.160,0.260,0.246,0.240,0.141,0.086,���쓌,0.6,��
2020/12/10,01:30,0.177,0.158,0.259,0.245,0.239,0.141,0.086,-,CALM,��
2020/12/10,01:40,0.178,0.159,0.260,0.244,0.240,0.141,0.086,-,CALM,��
2020/12/10,01:50,0.178,0.159,0.259,0.246,0.241,0.141,0.086,���k��,0.7,��
2020/12/10,02:00,0.177,0.160,0.259,0.245,0.240,0.142,0.085,-,CALM,��
2020/12/10,02:10,0.178,0.161,0.259,0.245,0.240,0.141,0.086,�k��,1.2,��
2020/12/10,02:20,0.177,0.160,0.259,0.246,0.241,0.140,0.086,�k��,1.1,��
2020/12/10,02:30,0.176,0.158,0.260,0.246,0.240,0.141,0.086,�k��,1.3,��
2020/12/10,02:40,0.178,0.159,0.259,0.245,0.239,0.141,0.086,���k��,1.3,��
2020/12/10,02:50,0.177,0.159,0.259,0.244,0.241,0.141,0.086,�k�k��,1.2,��
2020/12/10,03:00,0.177,0.159,0.259,0.245,0.239,0.141,0.086,���k��,0.6,��
2020/12/10,03:10,0.178,0.159,0.258,0.245,0.240,0.142,0.086,�k��,0.8,��
2020/12/10,03:20,0.177,0.159,0.258,0.245,0.240,0.141,0.086,�k�k��,0.6,��
2020/12/10,03:30,0.176,0.159,0.260,0.246,0.240,0.141,0.086,�k��,1.3,��
2020/12/10,03:40,0.177,0.158,0.259,0.245,0.240,0.141,0.085,�k��,1.4,��
2020/12/10,03:50,0.178,0.159,0.258,0.245,0.239,0.141,0.086,�k�k��,1.6,��
2020/12/10,04:00,0.178,0.159,0.259,0.246,0.240,0.141,0.086,�k��,1.2,��
2020/12/10,04:10,0.177,0.159,0.260,0.246,0.239,0.141,0.085,-,CALM,��
2020/12/10,04:20,0.177,0.158,0.259,0.245,0.240,0.141,0.085,-,CALM,��
2020/12/10,04:30,0.177,0.159,0.259,0.244,0.241,0.141,0.085,�k�k��,0.7,��
2020/12/10,04:40,0.176,0.158,0.259,0.246,0.239,0.141,0.086,-,CALM,��
2020/12/10,04:50,0.177,0.159,0.259,0.245,0.240,0.142,0.086,�k��,0.7,��
2020/12/10,05:00,0.178,0.159,0.259,0.245,0.240,0.141,0.086,�k�k��,0.6,��
2020/12/10,05:10,0.177,0.159,0.258,0.244,0.239,0.140,0.085,�k�k��,0.6,��
2020/12/10,05:20,0.176,0.158,0.259,0.246,0.240,0.140,0.086,-,CALM,��
2020/12/10,05:30,0.177,0.159,0.259,0.245,0.241,0.142,0.086,-,CALM,��
2020/12/10,05:40,0.176,0.159,0.260,0.244,0.240,0.142,0.085,�k,0.6,��
2020/12/10,05:50,0.177,0.159,0.259,0.244,0.239,0.141,0.086,�k�k��,0.6,��
2020/12/10,06:00,0.176,0.158,0.261,0.244,0.239,0.141,0.085,�k��,0.8,��
2020/12/10,06:10,0.178,0.159,0.259,0.245,0.238,0.141,0.085,-,CALM,��
2020/12/10,06:20,0.177,0.159,0.260,0.244,0.240,0.142,0.086,�k�k��,0.8,��
2020/12/10,06:30,0.177,0.159,0.259,0.245,0.240,0.141,0.085,�k,0.7,��
2020/12/10,06:40,0.178,0.158,0.260,0.246,0.239,0.142,0.084,�k�k��,0.8,��
2020/12/10,06:50,0.178,0.160,0.258,0.244,0.239,0.140,0.086,�k,0.7,��
2020/12/10,07:00,0.177,0.159,0.259,0.245,0.240,0.141,0.085,-,CALM,��
2020/12/10,07:10,0.177,0.158,0.258,0.245,0.240,0.142,0.085,�k�k��,0.7,��
2020/12/10,07:20,0.177,0.160,0.259,0.245,0.239,0.141,0.085,-,CALM,��
2020/12/10,07:30,0.177,0.159,0.260,0.244,0.241,0.141,0.086,-,CALM,��
2020/12/10,07:40,0.178,0.159,0.260,0.246,0.239,0.141,0.085,��쐼,1.6,�L
2020/12/10,07:50,0.178,0.160,0.259,0.245,0.240,0.142,0.086,-,CALM,��
2020/12/10,08:00,0.178,0.158,0.259,0.245,0.241,0.141,0.086,-,CALM,��
2020/12/10,08:10,0.178,0.159,0.261,0.245,0.240,0.142,0.086,-,CALM,��
2020/12/10,08:20,0.179,0.160,0.259,0.246,0.240,0.141,0.087,-,CALM,�L
2020/12/10,08:30,0.177,0.160,0.259,0.245,0.242,0.143,0.087,���k��,6.0,�L
2020/12/10,08:40,0.179,0.160,0.260,0.246,0.241,0.143,0.087,-,CALM,�L
2020/12/10,08:50,0.179,0.161,0.261,0.246,0.241,0.142,0.088,-,CALM,��
2020/12/10,09:00,0.178,0.160,0.259,0.248,0.242,0.143,0.087,-,CALM,��
2020/12/10,09:10,0.179,0.160,0.258,0.245,0.242,0.142,0.088,-,CALM,��
2020/12/10,09:20,0.177,0.161,0.259,0.247,0.241,0.142,0.087,-,CALM,��
2020/12/10,09:30,0.178,0.160,0.258,0.246,0.241,0.142,0.087,-,CALM,��
2020/12/10,09:40,0.178,0.161,0.259,0.245,0.240,0.141,0.087,-,CALM,��
2020/12/10,09:50,0.179,0.159,0.260,0.246,0.240,0.141,0.086,-,CALM,��
2020/12/10,10:00,0.179,0.160,0.259,0.246,0.240,0.142,0.086,-,CALM,��
2020/12/10,10:10,0.178,0.160,0.258,0.245,0.240,0.141,0.086,-,CALM,��
2020/12/10,10:20,0.178,0.160,0.259,0.245,0.242,0.142,0.087,�k�k��,1.4,��
2020/12/10,10:30,0.178,0.159,0.259,0.245,0.240,0.142,0.087,���k��,1.1,��
2020/12/10,10:40,0.178,0.159,0.259,0.245,0.241,0.142,0.086,�k��,1.7,��
2020/12/10,10:50,0.179,0.160,0.260,0.245,0.243,0.142,0.087,�k��,1.8,�L
2020/12/10,11:00,0.179,0.162,0.259,0.247,0.242,0.144,0.087,�k��,1.2,�L
2020/12/10,11:10,0.180,0.162,0.260,0.247,0.244,0.144,0.089,�k��,1.9,��
2020/12/10,11:20,0.180,0.162,0.262,0.247,0.244,0.144,0.088,�k��,2.3,��
2020/12/10,11:30,0.180,0.162,0.261,0.247,0.243,0.144,0.088,�k�k��,1.8,��
2020/12/10,11:40,0.180,0.162,0.260,0.248,0.243,0.144,0.088,�k�k��,1.5,��
2020/12/10,11:50,0.180,0.163,0.261,0.248,0.243,0.145,0.089,�k��,1.3,�L
2020/12/10,12:00,0.179,0.162,0.262,0.250,0.242,0.144,0.090,�k��,1.6,�L
2020/12/10,12:10,0.181,0.162,0.261,0.247,0.243,0.145,0.089,�k��,1.6,�L
2020/12/10,12:20,0.181,0.162,0.262,0.249,0.242,0.145,0.089,�k�k��,1.4,��
2020/12/10,12:30,0.180,0.162,0.261,0.248,0.243,0.145,0.089,�k��,1.1,��
2020/12/10,12:40,0.180,0.162,0.261,0.246,0.244,0.145,0.089,�k�k��,1.5,��
2020/12/10,12:50,0.181,0.162,0.261,0.248,0.241,0.144,0.089,�k��,1.6,��
2020/12/10,13:00,0.179,0.161,0.260,0.246,0.242,0.144,0.089,�k��,2.5,�L
2020/12/10,13:10,0.180,0.162,0.259,0.246,0.242,0.143,0.088,�k��,2.6,�L
2020/12/10,13:20,0.180,0.163,0.261,0.246,0.242,0.144,0.087,�k��,3.1,�L
2020/12/10,13:30,0.180,0.163,0.261,0.247,0.243,0.143,0.086,�k��,3.2,��
2020/12/10,13:40,0.180,0.161,0.261,0.246,0.241,0.143,0.087,�k��,3.0,��
2020/12/10,13:50,0.179,0.161,0.260,0.246,0.241,0.143,0.087,�k��,3.5,��
2020/12/10,14:00,0.179,0.161,0.259,0.247,0.242,0.142,0.086,�k��,2.8,��
2020/12/10,14:10,0.178,0.161,0.259,0.245,0.239,0.142,0.086,�k�k��,1.5,��
2020/12/10,14:20,0.178,0.160,0.258,0.244,0.240,0.141,0.085,�k�k��,1.9,��
2020/12/10,14:30,0.178,0.159,0.259,0.244,0.239,0.142,0.085,�k�k��,2.4,��
2020/12/10,14:40,0.178,0.160,0.258,0.244,0.239,0.141,0.085,�k,1.8,��
2020/12/10,14:50,0.177,0.160,0.257,0.244,0.240,0.141,0.086,�k��,1.5,��
2020/12/10,15:00,0.177,0.159,0.256,0.242,0.238,0.140,0.085,���k��,2.3,��
2020/12/10,15:10,0.177,0.159,0.256,0.244,0.239,0.141,0.085,�k��,2.0,��
2020/12/10,15:20,0.177,0.158,0.258,0.242,0.240,0.141,0.085,�k��,1.4,��
2020/12/10,15:30,0.176,0.159,0.257,0.244,0.238,0.141,0.085,�k,1.5,��
2020/12/10,15:40,0.176,0.159,0.256,0.243,0.238,0.141,0.086,�k,2.3,��
2020/12/10,15:50,0.176,0.158,0.259,0.243,0.239,0.141,0.085,�k,2.5,��
2020/12/10,16:00,0.177,0.159,0.257,0.244,0.238,0.140,0.085,�k�k��,3.8,��
2020/12/10,16:10,0.176,0.158,0.257,0.242,0.241,0.140,0.085,�k�k��,4.4,��
2020/12/10,16:20,0.176,0.159,0.257,0.242,0.239,0.140,0.086,�k�k��,5.1,��
2020/12/10,16:30,0.178,0.158,0.258,0.244,0.238,0.140,0.085,�k�k��,6.5,��
2020/12/10,16:40,0.177,0.158,0.256,0.243,0.238,0.141,0.085,�k�k��,6.3,��
2020/12/10,16:50,0.177,0.158,0.256,0.243,0.238,0.140,0.085,�k�k��,7.7,��
2020/12/10,17:00,0.176,0.159,0.258,0.244,0.239,0.140,0.085,�k�k��,8.2,��
2020/12/10,17:10,0.177,0.158,0.257,0.243,0.238,0.140,0.085,�k�k��,7.3,��
2020/12/10,17:20,0.177,0.159,0.257,0.244,0.239,0.140,0.085,�k�k��,6.5,��
2020/12/10,17:30,0.177,0.158,0.258,0.243,0.239,0.140,0.085,�k�k��,5.9,��
2020/12/10,17:40,0.177,0.159,0.257,0.243,0.239,0.140,0.085,�k��,3.3,��
2020/12/10,17:50,0.176,0.159,0.257,0.244,0.238,0.140,0.084,�k,4.0,��
2020/12/10,18:00,0.176,0.158,0.258,0.243,0.238,0.140,0.085,�k�k��,4.4,��
2020/12/10,18:10,0.177,0.158,0.257,0.243,0.239,0.141,0.084,�k�k��,4.2,��
2020/12/10,18:20,0.176,0.159,0.255,0.243,0.238,0.140,0.085,�k�k��,4.3,��
2020/12/10,18:30,0.177,0.157,0.257,0.243,0.238,0.141,0.085,�k�k��,4.0,��
2020/12/10,18:40,0.177,0.159,0.257,0.243,0.238,0.140,0.086,�k�k��,3.9,��
2020/12/10,18:50,0.176,0.159,0.257,0.242,0.239,0.141,0.085,�k�k��,4.2,��
2020/12/10,19:00,0.177,0.159,0.256,0.244,0.238,0.141,0.086,�k�k��,3.9,��
2020/12/10,19:10,0.176,0.158,0.258,0.243,0.239,0.141,0.086,�k�k��,3.8,��
2020/12/10,19:20,0.177,0.159,0.256,0.243,0.240,0.140,0.085,�k�k��,4.2,��
2020/12/10,19:30,0.177,0.159,0.257,0.244,0.238,0.140,0.084,�k�k��,4.3,��
2020/12/10,19:40,0.177,0.158,0.258,0.243,0.239,0.140,0.085,�k�k��,3.9,��
2020/12/10,19:50,0.176,0.159,0.257,0.243,0.239,0.139,0.085,�k�k��,3.6,��
2020/12/10,20:00,0.177,0.160,0.258,0.242,0.240,0.140,0.085,�k�k��,3.2,��
2020/12/10,20:10,0.177,0.159,0.258,0.244,0.238,0.140,0.085,�k��,3.0,��
2020/12/10,20:20,0.176,0.158,0.257,0.244,0.239,0.140,0.084,�k�k��,3.8,��
2020/12/10,20:30,0.177,0.159,0.259,0.244,0.238,0.141,0.085,�k,2.7,��
2020/12/10,20:40,0.177,0.159,0.258,0.242,0.239,0.141,0.086,�k�k��,2.3,��
2020/12/10,20:50,0.177,0.158,0.257,0.243,0.239,0.140,0.086,�k�k��,3.2,��
2020/12/10,21:00,0.177,0.158,0.257,0.244,0.239,0.141,0.085,�k�k��,3.6,��
2020/12/10,21:10,0.177,0.159,0.256,0.244,0.238,0.140,0.085,�k��,4.2,��
2020/12/10,21:20,0.176,0.159,0.258,0.244,0.239,0.141,0.085,�k��,4.0,��
2020/12/10,21:30,0.177,0.159,0.258,0.242,0.238,0.141,0.085,�k��,2.8,��
2020/12/10,21:40,0.177,0.159,0.257,0.244,0.239,0.141,0.085,�k��,2.5,��
2020/12/10,21:50,0.176,0.159,0.256,0.245,0.240,0.140,0.086,�k��,2.1,��
2020/12/10,22:00,0.177,0.159,0.258,0.244,0.239,0.141,0.085,�k��,2.0,��
2020/12/10,22:10,0.176,0.159,0.258,0.244,0.240,0.140,0.085,�k��,2.2,��
2020/12/10,22:20,0.176,0.159,0.258,0.242,0.240,0.141,0.086,���k��,3.2,��
2020/12/10,22:30,0.177,0.160,0.257,0.245,0.238,0.142,0.085,���k��,3.0,��
2020/12/10,22:40,0.176,0.159,0.257,0.245,0.240,0.141,0.086,���k��,2.1,��
2020/12/10,22:50,0.177,0.160,0.258,0.243,0.240,0.140,0.085,���k��,1.8,��
2020/12/10,23:00,0.177,0.159,0.257,0.244,0.238,0.141,0.086,�k�k��,1.8,��
2020/12/10,23:10,0.176,0.159,0.256,0.244,0.238,0.141,0.085,�k��,1.7,��
2020/12/10,23:20,0.177,0.158,0.257,0.244,0.239,0.141,0.085,���k��,0.8,��
2020/12/10,23:30,0.177,0.159,0.256,0.243,0.239,0.141,0.085,-,CALM,��
2020/12/10,23:40,0.176,0.158,0.258,0.243,0.238,0.141,0.085,�k��,0.7,��
2020/12/10,23:50,0.176,0.158,0.257,0.243,0.238,0.141,0.085,�k��,1.3,��
